Flight Information

DEPARTURE
CHINO, CA
Elevation:
650
Runways:
8L/26R - 4858x150 - ASPH-G
3/21 - 4919x150 - ASPH-G
8R/26L - 7000x150 - ASPH-G
ATIS:
125.85 909-393-5365
Ground:
121.6
Tower:
118.5
DESTINATION
,
Elevation:
TPA:
1000 (est.)


6757.1 NM74° True-14° Var60° HDG

Flight Plan:
(click to file on line)

1. Type
2. Aircraft Identification
3. Aircraft Type / Special Equipment
4. True Airspeed
kts
5. Departure Airport
(ICAO code)
6. Arriving Airport
(ICAO code)
7. Cruising Altitude
ft
8. Alternate Airport
(ICAO code)
9. Route of Flight
10. Remarks


00:00:00 Departure ATIS: Destination ATIS:

Clearance Limit:
Route:
Altitude: Expect in minutes
Frequency:
Transponder: (7500 Hijack / 7600 Lost Comms / 7700 Emergency)


KCNO 281236Z AUTO 00000KT 1SM HZ FU CLR 16/13 A2991 RMK AO2 T01610133
Time: 2020-09-28T12:36:00Z
1601296956
Winds: calm
Visibility: 1.0 sm
Clouds (AGL): CLR
Temperature: 16.1 C
Dew Point: 13.3 C
Pressure: 29.911417 in Hgbr


Notes:

Data extracted from FAA Digital Chart Supplement. Effective: 0901Z Thursday, Sep 10, 2020 to 0901Z Thursday, Nov 5, 2020
Current ATIS data is provided courtisy of PilotEdge.